Погода в Оденсе

Дания     55°22′54″N   10°23′57″E
темп.,
°C
ветер,
м/с
пор.,
м/с
влажн.,
%
обл.,
%
осадки,
мм/ч
давл.,
гПа
погр.,
м
12 августа, пт
пт1223:00+19ю33675 0.0 102334
02:00+18ююз22702 0.0 102425
05:00+18ююв22720 0.0 102339
08:00+20юв23670 0.0 102398
11:00+21в44555 0.0 1023341
14:00+22в44475 0.0 1022416
17:00+23в55499 0.0 1021425
20:00+22вюв44575 0.0 102149
13 августа, сб
сб1323:00+19ююв336925 0.0 102133
02:00+19ююв33716 0.0 102141
05:00+18юв347413 0.0 102160
08:00+20ююв346915 0.0 1020110
11:00+24юв445327 0.0 1020407
14:00+25юв445053 0.0 1019918
17:00+26ююв2447100 0.0 1018881
20:00+24ююв4451100 0.0 101734
14 августа, вс
вс1423:00+21ююз226093 0.0 101812
02:00+20ююв226916 0.0 101711
05:00+19ююв33780 0.0 101736
08:00+21юв45745 0.0 1016116
11:00+23вюв566313 0.0 1015364
14:00+24вюв45555 0.0 1014621
17:00+24в5656100 0.0 1013439
20:00+22юв4664100 0.0 1012128
15 августа, пн
пн1523:00+20вюв5978100 0.0 1012166
02:00+19вюв5981100 0.0 1011190
05:00+19в478493 0.4 1009160
08:00+19в5787100 2.3 1009248
11:00+21в478198 1.3 1008262
14:00+22св457489 1.6 1006362
17:00+22св367619 2.6 1005408
20:00+22в367759 2.9 1004122
16 августа, вт
вт1623:00+20юв713885 2.4 1005296
02:00+19юв479528 3.2 1004144
05:00+19юв5994100 0.8 1003177
08:00+20юв3490100 0.8 1004118
11:00+22юв12761 0.1 1004357
14:00+24зсз246513 4.3 1005746
17:00+26з47534 3.1 1005707
20:00+23зюз58595 3.1 1006241